Miscellaneous Local Product
Issued by NWS Hastings, NE

Home | Current Version | Previous Version | Graphics & Text | Print | Product List | Glossary On
Versions: 1 2 3 4 5 6 7 8 9 10 11 12 13 14 15 16 17 18 19 20 21 22 23 24 25 26 27 28 29 30 31 32 33 34 35 36 37 38 39 40 41 42 43 44 45 46 47 48 49 50
540
AXUS43 KGID 130902
MISGRI

GID CWA HOURLY WEATHER ROUNDUP
NATIONAL WEATHER SERVICE HASTINGS NE
300 AM CST SAT FEB 13 2016

NOTE: "FAIR" INDICATES FEW OR NO CLOUDS BELOW 12,000 FEET WITH NO
SIGNIFICANT WEATHER AND/OR OBSTRUCTIONS TO VISIBILITY.

...SOUTH CENTRAL NEBRASKA...

CITY           SKY/WX    TMP DP  RH WIND       PRES   REMARKS
GRAND ISLAND   CLOUDY    16   7  67 E12       30.52F WCI   3
HASTINGS       CLOUDY    17  10  74 SE10      30.49S WCI   5
KEARNEY        CLOUDY    18  12  79 SE12      30.47F WCI   5
ORD            CLOUDY    17  10  74 SE10      30.46F WCI   5
YORK           CLOUDY    16   7  67 E10       30.55R WCI   3
AURORA         CLOUDY    16   8  71 E8        30.53S WCI   5
LEXINGTON      CLOUDY    21  17  83 SE9       30.44F WCI  11
HOLDREGE       CLOUDY    18  15  85 SE6       30.46S WCI  10
HEBRON         CLOUDY    18  12  75 E6        30.56S WCI  10

...NEBRASKA PANHANDLE...

CITY           SKY/WX    TMP DP  RH WIND       PRES   REMARKS
CHADRON        CLOUDY    34  29  82 S15       30.16F WCI  24
ALLIANCE       CLOUDY    30  29  96 S17       30.18F FOG     WCI  18
SCOTTSBLUFF    CLOUDY    33  30  88 SE13      30.16F WCI  24
SIDNEY         CLOUDY    30  30 100 S13       30.20F FOG     WCI  20

...WESTERN AND NORTH CENTRAL NEBRASKA...

CITY           SKY/WX    TMP DP  RH WIND       PRES   REMARKS
VALENTINE      CLOUDY    22  17  81 SE15      30.35F WCI   9
AINSWORTH      CLOUDY    20  15  81 SE14      30.37S WCI   7
ONEILL         CLOUDY    15   9  78 SE9       30.49S WCI   3
BROKEN BOW     CLOUDY    19  14  81 S14       30.41F WCI   6
IMPERIAL       CLOUDY    28  27  96 S15       30.31F WCI  16
NORTH PLATTE   CLOUDY    23  19  85 SE10      30.36F WCI  12
MCCOOK         CLOUDY    24  23  96 SE13      30.40F FOG     WCI  12

...EASTERN NEBRASKA...

CITY           SKY/WX    TMP DP  RH WIND       PRES   REMARKS
NORFOLK        CLOUDY    11   2  67 E7        30.55R WCI   0
SO SIOUX CITY  CLOUDY     6  -5  60 E7        30.64S WCI  -6
TEKAMAH        CLOUDY     7  -3  64 NE8       30.63S WCI  -6
COLUMBUS       CLOUDY    12  -2  52 E7        30.57S WCI   2
ALBION         CLOUDY    14   7  73 SE8       30.53R WCI   3
OMAHA EPPLEY   CLOUDY    10  -3  55 NE5       30.64S WCI   2
OFFUTT AFB     CLOUDY    10  -2  58 NE8       30.62F WCI  -1
MILLARD        CLOUDY    13   0  56 CALM      30.62F
LINCOLN        CLOUDY    14   4  64 NE7       30.61S WCI   4
NEBRASKA CITY  CLOUDY    14   2  60 E6        30.60F WCI   5
BEATRICE       CLOUDY    17   8  68 NE7       30.57F WCI   7
FALLS CITY     CLOUDY    15   2  56 NE9       30.60F WCI   3

...NORTHERN KANSAS...

CITY           SKY/WX    TMP DP  RH WIND       PRES   REMARKS
GOODLAND       CLOUDY    26  24  92 S18       30.31F WCI  13
HILL CITY      CLOUDY    25  20  81 E10       30.45F WCI  15
NORTON         CLOUDY    23  16  74 E9        30.43F WCI  13
PHILLIPSBURG   CLOUDY    23  19  86 CALM      30.49F
SMITH CENTER   PTCLDY    18  16  93 CALM      30.51S
BELOIT         MOCLDY    21  14  73 E6        30.53S WCI  14
HAYS           CLOUDY    23  10  58 E9        30.46F WCI  13
RUSSELL        CLOUDY    21  16  81 E8        30.46F WCI  11
CONCORDIA      CLOUDY    21  13  71 E9        30.53F WCI  11
SALINA         CLOUDY    25  13  60 E9        30.54F WCI  15
TOPEKA         CLOUDY    20   3  48 NE12      30.60F WCI   8



USA.gov is the U.S. government's official web portal to all federal, state and local government web resources and services.